Location: Newark
(54.7500°N, 9.9000°E)
Time: 17:21:50
(UTC+00:00)

ISS - Visible Passes

Search period start: 27 January 2021 00:00
Search period end: 06 February 2021 00:00
Orbit: 418 x 421 km, 51.6° (Epoch: 28 January)

Date Brightness Start Highest point End Pass type
(mag) Time Alt. Az. Time Alt. Az. Time Alt. Az.
27 Jan -2.9 17:00:28 10° WSW 17:03:41 43° SSE 17:06:14 15° E visible
27 Jan -2.2 18:36:58 10° W 18:39:13 34° WSW 18:39:13 34° WSW visible
28 Jan -3.2 17:49:40 10° W 17:52:58 49° S 17:53:50 38° SE visible
28 Jan -0.4 19:26:28 10° W 19:26:49 12° W 19:26:49 12° W visible
29 Jan -3.1 17:02:24 10° WSW 17:05:41 50° S 17:08:28 14° ESE visible
29 Jan -2.1 18:39:04 10° W 18:41:27 30° SW 18:41:27 30° SW visible
30 Jan -2.8 17:51:43 10° W 17:54:56 41° SSW 17:56:07 29° SE visible
30 Jan -0.4 19:28:54 10° WSW 19:29:06 11° WSW 19:29:06 11° WSW visible
31 Jan -2.9 17:04:23 10° W 17:07:38 46° S 17:10:50 10° ESE visible
31 Jan -1.7 18:41:19 10° W 18:43:49 22° SSW 18:43:49 22° SSW visible
01 Feb -2.0 17:53:49 10° W 17:56:46 28° SSW 17:58:37 17° SSE visible
02 Feb -2.3 17:06:24 10° W 17:09:31 34° SSW 17:12:37 10° SE visible
02 Feb -0.9 18:44:08 10° WSW 18:45:38 12° SW 18:46:30 12° SSW visible
03 Feb -1.1 17:56:11 10° WSW 17:58:28 17° SSW 18:00:44 10° S visible
04 Feb -1.4 17:08:33 10° W 17:11:14 22° SSW 17:13:55 10° SSE visible
